Regional Weather Roundup
Issued by NWS

Home | Current Version | Previous Version | Graphics & Text | Print | Product List | Glossary On
Versions: 1 2 3 4 5 6 7 8 9 10 11 12 13 14 15 16 17 18 19 20 21 22 23 24 25 26 27 28 29 30 31 32 33 34 35 36 37 38 39 40 41 42 43 44 45 46 47 48 49 50
000
ASUS43 KIND 240309
RWRIN

WEATHER ROUNDUP FOR INDIANA
NATIONAL WEATHER SERVICE INDIANAPOLIS IN
1100 PM EDT THU OCT 23 2014

NOTE: "FAIR" INDICATES FEW OR NO CLOUDS BELOW 12,000 FEET WITH NO
SIGNIFICANT WEATHER AND/OR OBSTRUCTIONS TO VISIBILITY.

* - STATION DOES NOT REPORT WEATHER SUCH AS PRECIPITATION OR FOG.

+ - STATION NOT QUALITY CONTROLLED BY THE NATIONAL WEATHER SERVICE.
    USE DATA WITH CAUTION...ESPECIALLY DEWPOINT AND RELATIVE
    HUMIDITY OBSERVATIONS.

INZ001>003-010>013-019-020-240400-
NORTHWEST INDIANA

CITY           SKY/WX    TMP DP  RH WIND       PRES   REMARKS
GARY /AIRPORT/ CLOUDY    55  42  62 S3        30.10S
KNOX *+        MOCLDY    42  39  86 S3        30.10F
LA PORTE +     MOCLDY    46  44  91 CALM      30.11S
MICHIGAN CITY+ CLOUDY    50  37  62 CALM      30.10S
MONTICELLO +   MOCLDY    44  43  97 CALM      30.11S
RENSSELAER +   PTCLDY    46  43  87 CALM      30.11S
VALPARAISO     CLOUDY    50  41  71 S3        30.10S

$$

LMZ046-743>745-240400-
SOUTHERN LAKE MICHIGAN

STATION/POSITION TIME  TEMP WIND        PRES
                       AIR  DIR/SP/G
                 (UTC) (F)  (DEG/KT/KT) (MB)
MICHIGAN CITY    0300   52  150/  6/  7   N/A

$$

INZ004-005-014>016-021>024-240400-
NORTH CENTRAL INDIANA

CITY           SKY/WX    TMP DP  RH WIND       PRES   REMARKS
GOSHEN         PTCLDY    42  38  85 CALM      30.11S
LOGANSPORT +   MOCLDY    43  37  81 CALM      30.13R
PERU/GRISSOM   MOCLDY    45  44  97 S2        30.11S
ROCHESTER +    MOCLDY    43  41  93 CALM      30.12R
SOUTH BEND     MOCLDY    48  40  73 SE3       30.11F
WARSAW +       MOCLDY    39  37  93 CALM      30.12R FOG

$$

INZ006>009-017-018-025>027-240400-
NORTHEAST INDIANA

CITY           SKY/WX    TMP DP  RH WIND       PRES   REMARKS
ANGOLA *+      CLEAR     41  39  93 CALM      30.11S
AUBURN +       PTCLDY    41  36  81 CALM      30.12S
FORT WAYNE     MOCLDY    44  38  79 CALM      30.12S
HUNTINGTON +   MOCLDY    43  41  94 CALM      30.12S

$$

INZ028-029-035-036-043>045-051>053-240400-
WEST CENTRAL INDIANA

CITY           SKY/WX    TMP DP  RH WIND       PRES   REMARKS
GREENCASTLE +  CLOUDY    43  39  87 CALM      30.12F
LAFAYETTE      CLOUDY    45  41  86 CALM      30.11S
TERRE HAUTE    CLOUDY    47  43  86 CALM      30.12F

$$

INZ030>032-037>040-046>048-054>057-064-065-240400-
CENTRAL INDIANA

CITY           SKY/WX    TMP DP  RH WIND       PRES   REMARKS
CP ATTERBURY + CLOUDY    45  41  87 W3        30.13S
FRANKFORT +    CLOUDY    45  41  86 CALM      30.13S
INDIANAPOLIS   CLOUDY    49  40  71 CALM      30.11S
-EAGLE CREEK   CLOUDY    46  42  86 CALM      30.11F
KOKOMO *+      CLOUDY    46  39  76 CALM      30.12S
MARION +       CLOUDY    43  37  79 S3        30.12F
MT COMFORT *+  CLOUDY    43  41  93 CALM      30.12F
SHELBYVILLE    CLOUDY    45  40  82 CALM      30.12S
ZIONSVILLE +   CLOUDY    44  39  84 CALM      30.12F

$$

INZ033-034-041-042-049-050-058-059-240400-
EAST CENTRAL INDIANA

CITY           SKY/WX    TMP DP  RH WIND       PRES   REMARKS
MUNCIE         CLOUDY    44  40  85 CALM      30.12S

$$

INZ060-061-067>069-081>083-085>088-240400-
SOUTHWEST INDIANA

CITY           SKY/WX    TMP DP  RH WIND       PRES   REMARKS
EVANSVILLE     CLOUDY    50  46  86 CALM      30.14F
HUNTINGBURG *+ CLOUDY    48  43  81 NW5       30.14R
WASHINGTON +   CLOUDY    49  45  84 CALM      30.13S

$$

INZ062-063-066-070>080-084-089>092-240400-
SOUTH CENTRAL AND SOUTHEAST INDIANA

CITY           SKY/WX    TMP DP  RH WIND       PRES   REMARKS
BLOOMINGTON    CLOUDY    47  43  86 CALM      30.12F

$$




USA.gov is the U.S. government's official web portal to all federal, state and local government web resources and services.